GEFSMA_prec_meanprecacc_366.txt.gz
Total_Precipitation_Accumulation
1.60 1.49 1.45 1.63 1.72 2.03 2.29 2.44 2.32 2.11 1.82 1.58 1.55 1.52 1.60 1.63 1.70 1.80 2.24 2.76 3.32 4.18 4.64 4.60 4.48 4.36 4.32 4.27 4.14 4.02 3.79 3.51 3.54 3.80 4.36 4.55 4.20 3.67 3.31 3.05 2.81 2.55 2.59
1.40 1.43 1.34 1.43 1.61 1.96 2.40 2.53 2.27 2.13 1.91 1.79 1.77 1.69 1.67 1.64 1.67 1.64 1.87 2.17 2.30 2.77 3.50 4.17 4.55 4.60 4.65 4.58 4.12 3.94 3.71 3.42 3.38 3.54 3.55 3.59 3.58 3.26 2.98 2.95 2.73 2.52 2.69
1.19 1.30 1.37 1.40 1.53 1.88 2.35 2.64 2.50 2.28 2.00 1.94 1.90 1.83 1.73 1.74 1.69 1.61 1.73 1.95 1.92 2.06 2.59 3.37 4.18 4.57 4.55 4.50 4.14 3.91 3.54 3.13 2.99 3.09 3.15 3.04 3.15 3.15 2.99 2.93 2.75 2.59 2.60
1.22 1.32 1.44 1.41 1.47 1.79 2.21 2.58 2.71 2.70 2.48 2.31 2.15 2.00 1.88 2.03 1.87 1.73 1.78 1.94 2.08 1.94 2.05 2.53 3.23 4.06 4.41 4.48 4.00 3.69 3.50 3.10 2.83 2.75 2.84 2.69 2.87 3.09 3.09 2.95 2.88 2.89 2.84
1.31 1.40 1.61 1.65 1.66 1.90 2.11 2.24 2.46 2.65 2.72 2.53 2.19 2.10 1.98 2.10 2.21 2.11 2.17 2.23 2.25 2.17 2.04 2.07 2.41 2.90 3.68 4.14 3.96 3.66 3.52 3.23 2.99 2.74 2.78 2.61 2.58 2.85 3.04 2.87 2.92 3.05 3.05
1.53 1.48 1.65 1.70 1.77 2.06 2.18 2.31 2.60 2.70 2.78 2.79 2.38 2.17 2.08 2.08 2.14 2.35 2.47 2.47 2.45 2.25 2.19 2.07 2.26 2.37 3.00 3.65 3.75 3.60 3.34 3.27 3.26 3.10 3.11 2.94 2.67 2.74 2.90 2.82 2.89 2.97 3.06
1.62 1.66 1.72 1.77 1.82 1.97 2.05 2.20 2.66 2.81 2.82 2.73 2.81 2.73 2.54 2.26 2.16 2.24 2.37 2.58 2.68 2.49 2.40 2.41 2.34 2.31 2.45 2.84 3.08 3.19 3.14 3.39 3.57 3.44 3.27 3.10 2.85 2.90 3.01 2.87 2.92 2.92 2.94
1.58 1.52 1.76 1.92 1.89 2.05 2.11 2.29 2.66 2.99 2.85 2.74 3.14 3.56 3.29 2.95 2.54 2.24 2.27 2.32 2.55 2.58 2.43 2.30 2.17 2.18 2.26 2.40 2.40 2.58 2.83 3.31 3.79 3.63 3.27 3.16 2.99 2.87 2.99 2.93 2.89 2.82 2.80
1.87 1.80 1.91 2.08 2.05 2.12 2.23 2.28 2.43 2.99 3.25 3.07 3.02 3.61 3.50 3.27 3.19 2.60 2.16 2.05 2.31 2.51 2.52 2.36 2.22 2.23 2.26 2.39 2.33 2.29 2.46 2.83 3.49 3.57 3.37 3.36 3.21 2.95 2.76 2.68 2.67 2.80 2.87
2.16 2.01 2.04 2.14 2.18 2.25 2.23 2.06 2.24 2.79 3.38 3.51 3.28 3.01 2.85 2.77 2.93 2.90 2.34 1.97 2.01 2.21 2.44 2.33 2.29 2.35 2.39 2.49 2.54 2.35 2.24 2.34 2.87 3.49 3.74 3.61 3.44 3.20 2.90 2.71 2.64 2.70 2.73
2.20 2.05 2.00 2.17 2.26 2.30 2.27 2.31 2.46 2.76 3.12 3.48 3.49 3.25 2.95 2.66 2.21 2.39 2.49 2.26 1.95 1.86 1.94 2.08 2.25 2.34 2.39 2.37 2.51 2.41 2.15 1.99 2.27 2.93 3.53 3.69 3.56 3.43 3.27 3.16 3.13 3.09 2.96
2.05 2.02 2.03 2.06 2.07 2.15 2.22 2.36 2.59 2.73 2.93 3.17 3.27 2.97 2.85 2.77 2.51 2.32 2.16 2.26 2.23 1.93 1.74 1.71 1.84 2.06 2.17 2.25 2.13 2.21 2.04 1.96 2.00 2.16 2.51 3.00 3.24 3.39 3.48 3.50 3.38 3.24 3.22
1.83 1.86 1.95 1.94 1.86 1.89 2.02 2.17 2.36 2.38 2.51 2.73 2.86 2.74 2.56 2.39 2.34 2.39 2.33 2.22 2.09 1.82 1.66 1.48 1.57 1.74 1.77 1.98 2.16 2.13 1.86 1.85 1.79 1.77 1.80 1.99 2.36 2.74 3.13 3.52 3.59 3.48 3.44
1.62 1.57 1.60 1.67 1.70 1.72 1.79 1.95 2.07 2.03 2.09 2.27 2.33 2.40 2.32 2.21 2.20 2.21 2.25 2.39 2.27 2.05 1.68 1.34 1.38 1.56 1.54 1.65 1.99 2.05 1.65 1.59 1.45 1.41 1.47 1.58 1.76 2.07 2.48 2.85 3.12 3.26 3.30
1.41 1.33 1.37 1.48 1.58 1.60 1.63 1.80 1.90 1.84 1.89 1.99 2.11 2.27 2.21 2.13 2.11 2.13 2.22 2.33 2.41 2.31 2.01 1.53 1.36 1.33 1.36 1.46 1.83 1.71 1.57 1.58 1.44 1.34 1.26 1.31 1.43 1.57 1.77 2.05 2.27 2.43 2.48
1.36 1.33 1.33 1.33 1.36 1.39 1.45 1.66 1.84 1.89 1.88 1.90 1.93 2.04 2.17 2.14 2.15 2.14 2.22 2.27 2.28 2.31 2.18 1.74 1.46 1.32 1.41 1.35 1.61 1.38 1.48 1.70 1.50 1.30 1.21 1.18 1.24 1.35 1.48 1.66 1.70 1.66 1.63
1.19 1.14 1.10 1.14 1.25 1.23 1.24 1.43 1.54 1.58 1.73 1.80 1.74 1.76 1.91 2.01 2.13 2.14 2.16 2.18 2.24 2.23 2.13 1.87 1.53 1.38 1.51 1.55 1.60 1.41 1.36 1.40 1.34 1.32 1.23 1.14 1.11 1.19 1.24 1.37 1.48 1.35 1.25
1.06 1.09 1.09 1.02 1.15 1.27 1.28 1.32 1.33 1.34 1.50 1.62 1.63 1.68 1.69 1.69 1.80 1.93 2.05 2.02 2.10 2.15 2.15 2.04 1.75 1.55 1.58 1.68 1.86 1.80 1.66 1.53 1.47 1.58 1.54 1.37 1.25 1.24 1.28 1.33 1.42 1.33 1.13
0.97 1.05 1.18 1.14 1.10 1.16 1.23 1.23 1.22 1.24 1.28 1.35 1.40 1.48 1.50 1.58 1.70 1.70 1.77 1.85 1.92 1.99 2.14 2.11 1.99 1.88 1.77 1.72 1.82 1.80 1.83 1.92 1.82 1.79 1.83 1.65 1.49 1.39 1.35 1.36 1.40 1.38 1.24
0.98 0.99 0.98 1.07 1.10 1.13 1.18 1.17 1.14 1.13 1.13 1.14 1.27 1.36 1.43 1.49 1.57 1.60 1.61 1.74 1.87 1.97 2.02 2.01 1.95 1.88 1.84 1.84 1.85 1.84 1.92 2.03 2.10 1.92 1.87 1.75 1.73 1.64 1.52 1.45 1.41 1.41 1.38
0.78 0.83 0.83 0.84 0.91 1.01 1.03 1.00 1.01 1.06 1.11 1.13 1.24 1.29 1.33 1.36 1.40 1.46 1.44 1.60 1.75 1.93 2.01 2.03 1.91 1.81 1.74 1.77 1.77 1.77 1.88 2.11 2.15 2.13 2.06 1.88 1.74 1.58 1.52 1.52 1.50 1.51 1.50
0.65 0.68 0.68 0.75 0.78 0.81 0.99 1.01 0.95 0.98 1.05 1.08 1.14 1.19 1.31 1.38 1.34 1.30 1.27 1.33 1.45 1.54 1.72 1.85 1.89 1.78 1.66 1.65 1.77 1.89 1.91 2.07 2.21 2.08 1.96 2.01 1.90 1.77 1.61 1.50 1.61 1.63 1.56
0.70 0.68 0.69 0.74 0.68 0.68 0.84 0.85 0.96 1.08 1.06 1.01 0.98 1.12 1.22 1.28 1.35 1.34 1.24 1.22 1.20 1.23 1.33 1.51 1.62 1.59 1.55 1.57 1.70 1.83 1.94 2.03 1.95 1.98 1.96 2.04 1.97 1.83 1.60 1.57 1.68 1.55 1.52
0.73 0.78 0.78 0.80 0.72 0.66 0.75 0.77 0.91 0.96 0.96 0.92 0.95 1.04 1.16 1.26 1.32 1.36 1.29 1.33 1.27 1.14 1.12 1.18 1.34 1.43 1.44 1.60 1.78 1.96 2.11 2.13 2.00 1.93 1.91 1.98 1.84 1.68 1.51 1.49 1.65 1.53 1.43
0.70 0.75 0.86 0.87 0.77 0.69 0.74 0.77 0.88 0.95 1.00 0.95 0.94 1.00 1.16 1.21 1.40 1.49 1.35 1.38 1.35 1.15 1.09 1.16 1.20 1.29 1.42 1.58 1.78 2.00 2.12 2.15 2.13 2.00 1.78 1.69 1.59 1.62 1.58 1.48 1.48 1.50 1.38
0.77 0.77 0.78 0.75 0.69 0.67 0.73 0.74 0.82 0.83 0.95 1.01 1.04 1.04 1.27 1.33 1.43 1.43 1.33 1.45 1.52 1.35 1.11 1.06 1.13 1.27 1.37 1.53 1.80 1.96 2.21 2.25 2.07 1.99 1.76 1.62 1.61 1.72 1.86 1.65 1.44 1.34 1.27

GEFSMA_prec_meanprecacc_372.txt.gz
Total_Precipitation_Accumulation
1.62 1.51 1.47 1.65 1.74 2.04 2.30 2.45 2.34 2.12 1.84 1.58 1.55 1.53 1.61 1.65 1.73 1.84 2.30 2.83 3.38 4.25 4.72 4.68 4.55 4.46 4.42 4.34 4.17 4.05 3.83 3.55 3.56 3.84 4.39 4.60 4.26 3.73 3.37 3.10 2.87 2.59 2.64
1.41 1.44 1.36 1.45 1.63 1.98 2.41 2.55 2.29 2.14 1.94 1.81 1.78 1.70 1.67 1.65 1.69 1.67 1.91 2.23 2.36 2.83 3.58 4.26 4.63 4.68 4.71 4.61 4.15 3.97 3.75 3.47 3.41 3.56 3.58 3.64 3.64 3.33 3.06 3.00 2.76 2.55 2.74
1.21 1.31 1.38 1.41 1.54 1.90 2.37 2.66 2.52 2.30 2.03 1.96 1.92 1.84 1.74 1.75 1.70 1.62 1.75 1.99 1.96 2.10 2.64 3.43 4.26 4.65 4.60 4.54 4.17 3.94 3.57 3.17 3.02 3.11 3.18 3.08 3.20 3.20 3.05 2.98 2.79 2.62 2.64
1.25 1.34 1.45 1.42 1.48 1.80 2.23 2.60 2.72 2.73 2.50 2.32 2.17 2.02 1.90 2.04 1.89 1.75 1.80 1.97 2.12 1.98 2.10 2.58 3.31 4.13 4.47 4.52 4.04 3.73 3.53 3.14 2.86 2.78 2.87 2.73 2.91 3.13 3.14 3.00 2.91 2.93 2.88
1.33 1.43 1.64 1.67 1.67 1.91 2.13 2.25 2.48 2.67 2.74 2.55 2.21 2.11 1.99 2.11 2.23 2.13 2.18 2.26 2.29 2.21 2.09 2.13 2.50 3.00 3.75 4.20 4.01 3.72 3.58 3.29 3.04 2.78 2.83 2.68 2.65 2.91 3.08 2.91 2.94 3.07 3.09
1.55 1.51 1.68 1.73 1.79 2.07 2.19 2.32 2.61 2.72 2.80 2.81 2.40 2.19 2.10 2.09 2.15 2.36 2.49 2.49 2.48 2.28 2.24 2.11 2.32 2.46 3.08 3.72 3.82 3.67 3.41 3.34 3.34 3.17 3.19 3.06 2.78 2.81 2.93 2.84 2.92 3.00 3.09
1.64 1.68 1.75 1.79 1.84 1.98 2.06 2.21 2.67 2.83 2.84 2.74 2.83 2.76 2.57 2.28 2.17 2.25 2.39 2.60 2.70 2.52 2.45 2.47 2.40 2.37 2.51 2.90 3.14 3.26 3.23 3.49 3.65 3.53 3.39 3.23 2.97 2.97 3.04 2.89 2.94 2.94 2.96
1.62 1.55 1.78 1.94 1.91 2.07 2.13 2.30 2.68 3.02 2.87 2.76 3.15 3.58 3.31 2.97 2.55 2.25 2.29 2.35 2.59 2.63 2.50 2.37 2.25 2.24 2.33 2.46 2.47 2.65 2.91 3.43 3.92 3.75 3.37 3.26 3.09 2.95 3.03 2.96 2.91 2.85 2.82
1.91 1.84 1.94 2.11 2.07 2.14 2.25 2.30 2.45 3.03 3.29 3.10 3.05 3.63 3.52 3.30 3.21 2.62 2.18 2.07 2.35 2.58 2.61 2.46 2.32 2.33 2.36 2.49 2.44 2.40 2.55 2.91 3.59 3.67 3.48 3.51 3.35 3.05 2.83 2.72 2.71 2.83 2.89
2.18 2.03 2.07 2.18 2.22 2.28 2.25 2.09 2.28 2.84 3.43 3.54 3.30 3.03 2.87 2.80 2.96 2.93 2.36 1.99 2.03 2.25 2.50 2.41 2.38 2.45 2.49 2.58 2.63 2.44 2.31 2.39 2.92 3.55 3.81 3.74 3.56 3.29 2.96 2.75 2.67 2.74 2.77
2.22 2.09 2.03 2.20 2.29 2.34 2.30 2.34 2.49 2.81 3.16 3.50 3.51 3.27 2.96 2.68 2.22 2.41 2.50 2.28 1.96 1.88 1.97 2.12 2.28 2.38 2.43 2.41 2.56 2.45 2.19 2.03 2.31 2.98 3.59 3.75 3.62 3.48 3.31 3.18 3.16 3.13 2.99
2.07 2.05 2.07 2.09 2.10 2.18 2.25 2.39 2.62 2.77 2.96 3.19 3.29 2.99 2.86 2.79 2.53 2.33 2.18 2.27 2.24 1.94 1.75 1.72 1.85 2.08 2.19 2.27 2.15 2.23 2.06 1.98 2.03 2.19 2.53 3.02 3.26 3.41 3.49 3.52 3.40 3.27 3.25
1.85 1.89 1.99 1.99 1.89 1.91 2.05 2.19 2.38 2.40 2.53 2.75 2.87 2.75 2.58 2.41 2.36 2.41 2.35 2.23 2.10 1.83 1.67 1.48 1.57 1.74 1.78 1.99 2.17 2.14 1.88 1.86 1.81 1.79 1.81 2.01 2.37 2.76 3.14 3.53 3.61 3.51 3.48
1.63 1.59 1.64 1.72 1.75 1.76 1.82 1.97 2.09 2.05 2.10 2.29 2.35 2.42 2.33 2.23 2.22 2.23 2.27 2.41 2.29 2.06 1.69 1.35 1.39 1.57 1.55 1.66 2.00 2.06 1.67 1.61 1.47 1.43 1.48 1.60 1.78 2.09 2.50 2.86 3.14 3.29 3.34
1.42 1.35 1.40 1.53 1.63 1.65 1.67 1.83 1.93 1.86 1.91 2.01 2.13 2.28 2.22 2.15 2.12 2.15 2.24 2.35 2.43 2.33 2.02 1.54 1.36 1.34 1.38 1.46 1.84 1.72 1.59 1.60 1.46 1.35 1.28 1.33 1.45 1.59 1.79 2.07 2.29 2.46 2.53
1.38 1.35 1.36 1.37 1.41 1.44 1.50 1.71 1.88 1.93 1.91 1.93 1.97 2.08 2.19 2.17 2.17 2.16 2.25 2.29 2.30 2.33 2.19 1.75 1.47 1.33 1.43 1.36 1.62 1.39 1.49 1.72 1.52 1.32 1.22 1.20 1.25 1.37 1.50 1.69 1.73 1.69 1.68
1.20 1.16 1.13 1.18 1.29 1.29 1.29 1.48 1.57 1.61 1.76 1.83 1.77 1.80 1.94 2.04 2.16 2.17 2.18 2.20 2.26 2.27 2.15 1.89 1.54 1.40 1.54 1.57 1.62 1.44 1.38 1.42 1.36 1.34 1.25 1.16 1.13 1.21 1.27 1.42 1.52 1.38 1.29
1.08 1.10 1.11 1.05 1.18 1.31 1.32 1.35 1.36 1.36 1.52 1.63 1.66 1.70 1.72 1.74 1.84 1.96 2.08 2.05 2.13 2.18 2.19 2.07 1.77 1.58 1.61 1.71 1.88 1.83 1.70 1.57 1.50 1.61 1.56 1.39 1.27 1.27 1.32 1.39 1.49 1.39 1.17
0.98 1.06 1.20 1.16 1.12 1.19 1.26 1.26 1.24 1.26 1.30 1.37 1.42 1.51 1.53 1.63 1.75 1.74 1.80 1.88 1.96 2.02 2.18 2.15 2.03 1.92 1.81 1.77 1.84 1.83 1.88 1.99 1.87 1.81 1.85 1.68 1.52 1.44 1.41 1.44 1.49 1.46 1.29
0.99 1.00 1.00 1.08 1.12 1.15 1.20 1.20 1.18 1.15 1.15 1.16 1.28 1.37 1.46 1.53 1.63 1.66 1.66 1.79 1.92 2.02 2.08 2.07 2.00 1.93 1.91 1.90 1.90 1.89 1.99 2.12 2.19 2.00 1.92 1.80 1.78 1.72 1.60 1.55 1.51 1.50 1.45
0.80 0.85 0.84 0.86 0.93 1.04 1.08 1.06 1.06 1.11 1.15 1.16 1.26 1.30 1.35 1.40 1.45 1.53 1.51 1.66 1.80 1.98 2.07 2.11 1.98 1.87 1.82 1.85 1.84 1.84 1.95 2.21 2.26 2.23 2.15 1.97 1.81 1.65 1.62 1.64 1.62 1.60 1.57
0.68 0.70 0.71 0.78 0.80 0.84 1.04 1.07 1.02 1.04 1.11 1.13 1.17 1.21 1.32 1.40 1.37 1.34 1.32 1.38 1.50 1.58 1.77 1.90 1.94 1.82 1.72 1.72 1.84 1.96 1.97 2.15 2.31 2.19 2.05 2.11 1.98 1.86 1.70 1.61 1.72 1.72 1.62
0.73 0.71 0.72 0.76 0.71 0.71 0.89 0.90 1.01 1.13 1.12 1.07 1.03 1.15 1.24 1.29 1.37 1.36 1.28 1.27 1.24 1.27 1.37 1.55 1.66 1.63 1.59 1.63 1.76 1.90 2.00 2.09 2.04 2.09 2.04 2.13 2.05 1.92 1.69 1.65 1.76 1.62 1.58
0.75 0.80 0.81 0.82 0.75 0.69 0.78 0.81 0.96 1.01 1.00 0.97 1.00 1.08 1.18 1.27 1.34 1.38 1.32 1.36 1.31 1.17 1.14 1.21 1.38 1.47 1.48 1.64 1.82 2.02 2.17 2.18 2.07 2.03 1.99 2.06 1.91 1.74 1.57 1.55 1.70 1.58 1.48
0.71 0.77 0.88 0.89 0.78 0.72 0.77 0.80 0.92 1.00 1.05 1.00 0.99 1.04 1.19 1.23 1.42 1.52 1.38 1.41 1.39 1.19 1.11 1.19 1.23 1.32 1.45 1.61 1.81 2.04 2.16 2.20 2.19 2.07 1.84 1.76 1.65 1.67 1.62 1.51 1.53 1.55 1.42
0.79 0.79 0.79 0.77 0.70 0.69 0.76 0.78 0.86 0.88 1.01 1.07 1.09 1.09 1.32 1.37 1.46 1.46 1.36 1.48 1.55 1.39 1.13 1.09 1.14 1.29 1.40 1.55 1.82 1.98 2.24 2.28 2.11 2.04 1.81 1.67 1.67 1.77 1.90 1.68 1.46 1.36 1.29

GEFSMA_prec_meanprecacc_378.txt.gz
Total_Precipitation_Accumulation
1.64 1.54 1.50 1.69 1.78 2.08 2.34 2.50 2.38 2.15 1.86 1.59 1.56 1.54 1.63 1.67 1.75 1.86 2.34 2.89 3.43 4.30 4.77 4.72 4.59 4.49 4.45 4.36 4.19 4.07 3.86 3.57 3.58 3.86 4.42 4.64 4.32 3.78 3.41 3.12 2.90 2.63 2.71
1.42 1.46 1.39 1.49 1.68 2.01 2.44 2.59 2.34 2.19 1.97 1.82 1.79 1.71 1.69 1.66 1.71 1.68 1.94 2.27 2.41 2.88 3.63 4.30 4.67 4.72 4.75 4.64 4.17 4.00 3.77 3.49 3.43 3.59 3.62 3.68 3.69 3.37 3.10 3.04 2.80 2.61 2.86
1.22 1.32 1.40 1.44 1.59 1.94 2.41 2.70 2.56 2.35 2.08 1.98 1.94 1.86 1.77 1.77 1.72 1.64 1.79 2.04 2.00 2.13 2.68 3.46 4.29 4.70 4.65 4.59 4.21 3.97 3.60 3.21 3.06 3.16 3.24 3.14 3.25 3.24 3.08 3.01 2.84 2.69 2.75
1.25 1.35 1.47 1.45 1.52 1.84 2.27 2.64 2.77 2.78 2.56 2.37 2.20 2.05 1.93 2.08 1.92 1.78 1.84 2.03 2.17 2.02 2.14 2.62 3.34 4.16 4.51 4.57 4.08 3.76 3.57 3.18 2.91 2.83 2.93 2.77 2.95 3.15 3.17 3.03 2.97 2.99 2.93
1.34 1.44 1.65 1.69 1.70 1.95 2.17 2.29 2.52 2.73 2.80 2.59 2.23 2.13 2.01 2.14 2.26 2.15 2.21 2.29 2.33 2.27 2.16 2.18 2.54 3.03 3.79 4.24 4.05 3.76 3.62 3.34 3.09 2.83 2.87 2.72 2.69 2.95 3.13 2.95 3.00 3.13 3.12
1.56 1.52 1.70 1.75 1.82 2.11 2.24 2.37 2.65 2.77 2.86 2.85 2.42 2.21 2.11 2.10 2.17 2.38 2.51 2.51 2.50 2.32 2.30 2.17 2.36 2.48 3.10 3.76 3.85 3.70 3.46 3.40 3.39 3.22 3.24 3.10 2.83 2.89 3.04 2.93 2.98 3.05 3.12
1.65 1.69 1.76 1.80 1.86 2.02 2.10 2.27 2.71 2.86 2.88 2.79 2.87 2.80 2.59 2.29 2.19 2.27 2.41 2.64 2.73 2.55 2.50 2.53 2.45 2.39 2.53 2.94 3.18 3.30 3.28 3.54 3.72 3.59 3.45 3.31 3.08 3.16 3.23 3.02 3.02 2.99 2.99
1.63 1.55 1.78 1.95 1.92 2.10 2.17 2.35 2.72 3.04 2.89 2.80 3.19 3.63 3.36 3.01 2.58 2.26 2.31 2.39 2.63 2.66 2.54 2.42 2.28 2.27 2.36 2.51 2.52 2.70 2.95 3.47 3.97 3.81 3.46 3.41 3.32 3.18 3.21 3.08 2.98 2.89 2.85
1.92 1.84 1.94 2.12 2.09 2.17 2.28 2.34 2.51 3.06 3.31 3.13 3.08 3.67 3.56 3.34 3.25 2.65 2.21 2.10 2.39 2.62 2.66 2.50 2.35 2.36 2.39 2.53 2.48 2.44 2.59 2.96 3.64 3.74 3.58 3.68 3.54 3.21 2.95 2.81 2.76 2.86 2.92
2.19 2.04 2.07 2.18 2.23 2.31 2.29 2.13 2.34 2.90 3.47 3.58 3.34 3.06 2.89 2.82 3.00 2.96 2.39 2.02 2.07 2.29 2.55 2.45 2.40 2.47 2.51 2.61 2.68 2.48 2.34 2.43 2.96 3.60 3.88 3.83 3.65 3.37 3.04 2.81 2.71 2.76 2.78
2.23 2.10 2.04 2.21 2.30 2.36 2.34 2.39 2.55 2.87 3.21 3.55 3.55 3.31 3.00 2.71 2.26 2.45 2.53 2.31 2.01 1.92 2.01 2.14 2.30 2.39 2.45 2.44 2.59 2.48 2.22 2.06 2.34 3.00 3.63 3.79 3.66 3.52 3.35 3.22 3.19 3.15 3.00
2.08 2.06 2.08 2.10 2.10 2.19 2.28 2.43 2.68 2.83 3.02 3.24 3.33 3.03 2.91 2.83 2.57 2.36 2.21 2.30 2.28 1.99 1.78 1.74 1.86 2.09 2.20 2.29 2.17 2.25 2.09 2.01 2.05 2.20 2.55 3.03 3.28 3.44 3.53 3.54 3.42 3.28 3.27
1.85 1.89 2.00 1.99 1.90 1.92 2.06 2.21 2.42 2.44 2.57 2.80 2.92 2.80 2.62 2.44 2.39 2.44 2.38 2.27 2.14 1.87 1.70 1.50 1.58 1.75 1.79 1.99 2.18 2.15 1.89 1.88 1.82 1.80 1.82 2.01 2.39 2.78 3.17 3.55 3.62 3.53 3.50
1.64 1.60 1.64 1.73 1.76 1.76 1.83 1.99 2.11 2.07 2.13 2.33 2.40 2.47 2.38 2.26 2.24 2.26 2.31 2.45 2.33 2.09 1.71 1.36 1.40 1.58 1.56 1.66 2.01 2.07 1.67 1.62 1.49 1.44 1.49 1.61 1.78 2.11 2.52 2.87 3.15 3.30 3.36
1.43 1.36 1.41 1.53 1.64 1.66 1.68 1.85 1.95 1.90 1.95 2.05 2.18 2.34 2.28 2.20 2.15 2.18 2.29 2.41 2.49 2.38 2.06 1.55 1.38 1.35 1.38 1.47 1.85 1.73 1.60 1.61 1.47 1.36 1.29 1.34 1.45 1.59 1.80 2.09 2.30 2.46 2.54
1.38 1.35 1.36 1.38 1.41 1.45 1.51 1.73 1.91 1.97 1.96 1.97 2.02 2.13 2.25 2.22 2.20 2.18 2.28 2.34 2.35 2.40 2.25 1.77 1.49 1.35 1.44 1.37 1.63 1.40 1.50 1.73 1.53 1.33 1.23 1.20 1.26 1.37 1.52 1.72 1.74 1.69 1.68
1.20 1.16 1.13 1.18 1.30 1.30 1.31 1.49 1.60 1.64 1.80 1.87 1.80 1.83 1.98 2.07 2.19 2.19 2.20 2.22 2.30 2.31 2.21 1.92 1.57 1.43 1.56 1.58 1.64 1.45 1.40 1.44 1.38 1.36 1.27 1.17 1.14 1.23 1.29 1.44 1.53 1.39 1.30
1.09 1.11 1.12 1.05 1.19 1.32 1.33 1.36 1.37 1.38 1.55 1.67 1.68 1.74 1.76 1.77 1.87 1.99 2.10 2.07 2.15 2.22 2.23 2.11 1.80 1.60 1.64 1.73 1.90 1.85 1.72 1.59 1.51 1.62 1.57 1.40 1.29 1.28 1.34 1.41 1.51 1.39 1.18
0.99 1.07 1.20 1.17 1.13 1.20 1.27 1.27 1.26 1.28 1.32 1.39 1.45 1.53 1.56 1.66 1.79 1.78 1.83 1.90 1.98 2.05 2.22 2.19 2.07 1.95 1.84 1.79 1.86 1.85 1.89 2.00 1.88 1.82 1.86 1.69 1.54 1.45 1.42 1.46 1.51 1.48 1.30
1.00 1.01 1.01 1.10 1.14 1.17 1.22 1.21 1.20 1.18 1.17 1.18 1.30 1.40 1.49 1.56 1.66 1.70 1.69 1.81 1.94 2.05 2.12 2.11 2.03 1.97 1.94 1.93 1.92 1.91 2.01 2.14 2.21 2.01 1.93 1.82 1.80 1.74 1.63 1.57 1.53 1.53 1.49
0.81 0.86 0.85 0.88 0.95 1.06 1.09 1.07 1.08 1.13 1.17 1.18 1.28 1.33 1.37 1.42 1.49 1.56 1.54 1.69 1.83 2.01 2.11 2.16 2.02 1.90 1.86 1.88 1.86 1.87 1.97 2.23 2.28 2.25 2.18 1.99 1.84 1.69 1.65 1.69 1.67 1.66 1.63
0.69 0.72 0.72 0.79 0.82 0.87 1.07 1.11 1.04 1.06 1.14 1.16 1.20 1.24 1.35 1.42 1.39 1.36 1.35 1.41 1.53 1.63 1.82 1.95 1.99 1.86 1.76 1.76 1.88 1.99 2.00 2.17 2.34 2.22 2.08 2.14 2.03 1.92 1.77 1.69 1.83 1.83 1.73
0.74 0.72 0.73 0.78 0.73 0.74 0.92 0.93 1.04 1.16 1.15 1.10 1.07 1.20 1.29 1.32 1.39 1.37 1.30 1.29 1.26 1.30 1.41 1.59 1.70 1.67 1.63 1.67 1.80 1.94 2.03 2.11 2.09 2.15 2.07 2.15 2.10 1.99 1.78 1.76 1.89 1.78 1.74
0.76 0.81 0.82 0.84 0.76 0.71 0.81 0.84 0.98 1.04 1.03 1.00 1.04 1.13 1.25 1.33 1.37 1.41 1.34 1.38 1.32 1.19 1.18 1.24 1.40 1.50 1.52 1.68 1.87 2.07 2.23 2.22 2.13 2.10 2.03 2.08 1.94 1.81 1.68 1.66 1.84 1.73 1.63
0.73 0.78 0.89 0.90 0.80 0.73 0.79 0.83 0.94 1.02 1.08 1.03 1.02 1.08 1.25 1.29 1.47 1.56 1.41 1.44 1.41 1.21 1.15 1.23 1.26 1.35 1.50 1.66 1.86 2.10 2.24 2.26 2.24 2.15 1.93 1.80 1.68 1.72 1.71 1.66 1.69 1.69 1.53
0.81 0.81 0.81 0.78 0.72 0.71 0.79 0.80 0.88 0.90 1.04 1.11 1.14 1.14 1.39 1.43 1.52 1.50 1.39 1.50 1.57 1.42 1.17 1.14 1.19 1.32 1.43 1.59 1.87 2.04 2.31 2.34 2.16 2.12 1.91 1.74 1.72 1.81 1.97 1.82 1.63 1.50 1.39

GEFSMA_prec_meanprecacc_384.txt.gz
Total_Precipitation_Accumulation
1.65 1.55 1.51 1.69 1.80 2.10 2.36 2.52 2.41 2.17 1.87 1.60 1.57 1.54 1.64 1.67 1.75 1.87 2.36 2.92 3.47 4.36 4.83 4.76 4.62 4.51 4.47 4.38 4.21 4.09 3.88 3.60 3.62 3.89 4.45 4.69 4.36 3.81 3.43 3.14 2.91 2.66 2.77
1.43 1.47 1.39 1.50 1.70 2.04 2.48 2.62 2.37 2.22 2.00 1.84 1.80 1.71 1.69 1.66 1.71 1.68 1.95 2.30 2.44 2.91 3.65 4.32 4.70 4.75 4.77 4.66 4.20 4.02 3.80 3.52 3.47 3.63 3.66 3.72 3.73 3.41 3.13 3.06 2.82 2.64 2.89
1.22 1.32 1.40 1.44 1.60 1.97 2.45 2.76 2.62 2.41 2.11 2.00 1.96 1.88 1.77 1.78 1.73 1.65 1.80 2.06 2.03 2.17 2.71 3.50 4.34 4.74 4.69 4.63 4.24 4.00 3.64 3.23 3.09 3.20 3.29 3.19 3.30 3.29 3.12 3.04 2.86 2.71 2.77
1.26 1.35 1.47 1.45 1.53 1.86 2.30 2.70 2.84 2.82 2.59 2.39 2.22 2.07 1.94 2.10 1.93 1.78 1.84 2.03 2.20 2.08 2.24 2.71 3.40 4.21 4.56 4.61 4.11 3.80 3.60 3.20 2.93 2.86 2.97 2.82 2.99 3.19 3.22 3.08 3.00 3.02 2.97
1.34 1.44 1.65 1.70 1.71 1.96 2.20 2.35 2.59 2.78 2.84 2.62 2.25 2.15 2.04 2.17 2.27 2.16 2.21 2.30 2.35 2.32 2.25 2.27 2.60 3.07 3.81 4.26 4.08 3.78 3.64 3.36 3.11 2.86 2.91 2.76 2.74 3.00 3.19 3.02 3.04 3.17 3.17
1.56 1.52 1.70 1.76 1.82 2.12 2.26 2.41 2.71 2.83 2.91 2.89 2.45 2.24 2.14 2.13 2.19 2.39 2.51 2.51 2.52 2.36 2.36 2.23 2.39 2.50 3.12 3.77 3.88 3.72 3.48 3.42 3.42 3.25 3.28 3.14 2.88 2.96 3.14 3.01 3.03 3.11 3.18
1.65 1.69 1.76 1.81 1.87 2.02 2.11 2.29 2.75 2.92 2.94 2.85 2.92 2.84 2.62 2.32 2.22 2.29 2.43 2.65 2.77 2.60 2.56 2.60 2.48 2.40 2.54 2.95 3.20 3.33 3.30 3.57 3.74 3.62 3.48 3.35 3.12 3.22 3.29 3.07 3.07 3.07 3.04
1.63 1.55 1.78 1.95 1.93 2.11 2.18 2.36 2.75 3.10 2.94 2.85 3.25 3.68 3.41 3.05 2.61 2.29 2.34 2.43 2.68 2.71 2.60 2.47 2.30 2.28 2.37 2.51 2.53 2.72 2.98 3.51 4.01 3.84 3.49 3.44 3.35 3.21 3.26 3.13 3.04 2.95 2.89
1.92 1.84 1.94 2.12 2.10 2.18 2.29 2.36 2.53 3.09 3.36 3.17 3.12 3.71 3.61 3.40 3.29 2.70 2.24 2.15 2.44 2.66 2.69 2.52 2.36 2.37 2.40 2.54 2.49 2.45 2.61 3.00 3.68 3.78 3.61 3.72 3.59 3.26 3.01 2.87 2.81 2.91 2.95
2.20 2.04 2.08 2.19 2.24 2.32 2.30 2.14 2.35 2.92 3.51 3.62 3.37 3.09 2.93 2.86 3.03 3.00 2.41 2.04 2.10 2.33 2.57 2.46 2.41 2.48 2.52 2.63 2.69 2.49 2.36 2.46 3.00 3.66 3.95 3.90 3.72 3.44 3.10 2.86 2.76 2.81 2.82
2.25 2.10 2.04 2.21 2.31 2.37 2.34 2.39 2.56 2.88 3.24 3.59 3.61 3.36 3.04 2.75 2.29 2.47 2.55 2.32 2.02 1.98 2.07 2.16 2.31 2.40 2.46 2.45 2.60 2.50 2.23 2.08 2.36 3.04 3.69 3.86 3.71 3.57 3.39 3.26 3.24 3.21 3.07
2.09 2.06 2.08 2.10 2.11 2.20 2.29 2.44 2.69 2.84 3.03 3.26 3.37 3.06 2.95 2.88 2.61 2.40 2.24 2.31 2.30 2.03 1.81 1.75 1.87 2.10 2.21 2.30 2.19 2.27 2.11 2.03 2.07 2.22 2.59 3.08 3.31 3.47 3.55 3.56 3.45 3.32 3.31
1.87 1.90 2.00 1.99 1.90 1.92 2.06 2.22 2.43 2.45 2.58 2.80 2.94 2.81 2.64 2.47 2.42 2.48 2.42 2.30 2.17 1.90 1.73 1.52 1.59 1.76 1.79 2.00 2.19 2.17 1.91 1.90 1.84 1.82 1.84 2.03 2.40 2.80 3.19 3.57 3.65 3.55 3.52
1.66 1.61 1.65 1.74 1.76 1.76 1.83 1.99 2.12 2.08 2.13 2.34 2.41 2.49 2.40 2.29 2.28 2.29 2.35 2.49 2.37 2.12 1.73 1.38 1.41 1.58 1.57 1.67 2.02 2.09 1.69 1.63 1.50 1.45 1.50 1.61 1.79 2.12 2.54 2.90 3.18 3.33 3.38
1.45 1.38 1.42 1.54 1.64 1.66 1.68 1.85 1.96 1.90 1.95 2.05 2.19 2.36 2.30 2.22 2.19 2.21 2.32 2.44 2.51 2.41 2.09 1.57 1.40 1.36 1.39 1.48 1.86 1.74 1.61 1.62 1.48 1.38 1.30 1.35 1.46 1.60 1.81 2.10 2.33 2.49 2.56
1.41 1.37 1.37 1.38 1.42 1.45 1.51 1.73 1.91 1.97 1.96 1.98 2.03 2.15 2.27 2.24 2.23 2.22 2.31 2.36 2.37 2.42 2.28 1.79 1.50 1.37 1.46 1.38 1.65 1.41 1.51 1.74 1.54 1.34 1.24 1.22 1.27 1.38 1.52 1.73 1.76 1.71 1.70
1.24 1.19 1.15 1.19 1.31 1.30 1.31 1.50 1.60 1.64 1.80 1.88 1.82 1.85 2.00 2.10 2.23 2.23 2.24 2.26 2.33 2.34 2.25 1.95 1.58 1.44 1.57 1.59 1.64 1.46 1.40 1.45 1.38 1.37 1.27 1.18 1.15 1.24 1.30 1.45 1.54 1.40 1.31
1.13 1.15 1.14 1.06 1.19 1.32 1.33 1.36 1.38 1.39 1.56 1.67 1.69 1.74 1.77 1.79 1.90 2.04 2.15 2.11 2.19 2.26 2.27 2.13 1.81 1.61 1.65 1.74 1.91 1.86 1.72 1.59 1.51 1.63 1.58 1.41 1.30 1.30 1.35 1.42 1.52 1.41 1.19
1.05 1.12 1.24 1.19 1.14 1.20 1.27 1.27 1.26 1.29 1.33 1.41 1.46 1.54 1.57 1.68 1.82 1.82 1.87 1.95 2.02 2.09 2.26 2.22 2.08 1.96 1.85 1.80 1.88 1.86 1.90 2.01 1.89 1.83 1.87 1.70 1.55 1.46 1.43 1.47 1.53 1.49 1.31
1.07 1.08 1.06 1.13 1.16 1.18 1.23 1.22 1.21 1.18 1.19 1.19 1.32 1.41 1.50 1.58 1.68 1.73 1.73 1.85 1.98 2.09 2.15 2.14 2.05 1.98 1.95 1.94 1.94 1.94 2.03 2.16 2.22 2.02 1.94 1.82 1.81 1.74 1.63 1.58 1.54 1.54 1.50
0.86 0.93 0.93 0.94 0.99 1.09 1.11 1.09 1.10 1.14 1.19 1.20 1.29 1.34 1.38 1.43 1.50 1.59 1.58 1.72 1.86 2.05 2.15 2.19 2.05 1.93 1.88 1.90 1.89 1.90 2.00 2.26 2.30 2.27 2.18 1.99 1.84 1.69 1.66 1.70 1.68 1.67 1.64
0.74 0.75 0.78 0.86 0.89 0.92 1.12 1.14 1.08 1.09 1.15 1.17 1.21 1.25 1.35 1.43 1.40 1.38 1.38 1.44 1.57 1.66 1.86 1.99 2.04 1.90 1.79 1.79 1.90 2.02 2.04 2.22 2.39 2.26 2.10 2.14 2.03 1.92 1.77 1.70 1.85 1.86 1.75
0.81 0.76 0.76 0.82 0.78 0.80 0.99 0.98 1.09 1.19 1.17 1.12 1.09 1.21 1.30 1.33 1.40 1.39 1.32 1.32 1.30 1.34 1.45 1.63 1.75 1.71 1.67 1.71 1.84 1.97 2.07 2.15 2.14 2.19 2.10 2.17 2.10 2.00 1.78 1.77 1.91 1.80 1.76
0.84 0.87 0.86 0.87 0.79 0.74 0.86 0.88 1.02 1.07 1.06 1.02 1.06 1.15 1.27 1.36 1.41 1.44 1.37 1.42 1.36 1.22 1.20 1.27 1.44 1.54 1.55 1.70 1.90 2.10 2.28 2.27 2.17 2.12 2.06 2.11 1.95 1.81 1.69 1.68 1.86 1.77 1.68
0.79 0.85 0.95 0.94 0.83 0.76 0.82 0.86 0.97 1.04 1.10 1.06 1.05 1.10 1.27 1.32 1.53 1.62 1.46 1.48 1.45 1.25 1.18 1.25 1.29 1.38 1.53 1.69 1.89 2.13 2.27 2.32 2.30 2.20 1.97 1.85 1.71 1.73 1.73 1.69 1.73 1.75 1.61
0.88 0.88 0.87 0.84 0.77 0.74 0.82 0.83 0.91 0.92 1.06 1.13 1.15 1.16 1.41 1.46 1.55 1.55 1.44 1.56 1.63 1.47 1.21 1.17 1.22 1.36 1.47 1.64 1.93 2.08 2.34 2.38 2.21 2.18 1.97 1.80 1.75 1.82 1.99 1.87 1.70 1.60 1.52